Flag for Australia Weather past 2 weeks in Port Hedland, Western Australia, Australia

Now
91 °F

Sunny.


Feels Like: 87 °F
Forecast: 67 / 92 °F
Wind: 6 mph from South

Location: Port Hedland Pardoo

Current Time: Sep 19, 2014 at 10:12:35 AM

Latest Report: Sep 19, 2014 at 9:30 AM


Visibility: N/A

Pressure: 30.01 "Hg

Humidity: 12%

Dew point: 32 °F

Location of Port HedlandLocation

Historic Weather in Port Hedland — Graph

°F

Port Hedland temperature yesterday

Maximum temperature yesterday: 99 °F (at 12:30 PM)
Minimum temperature yesterday: 63 °F (at 5:00 AM)
Average temperature yesterday: 78 °F

Past Weeks' High & Low Weather Summary

 TemperatureHumidityPressure
High100 °F (Sep 14, 11:30 AM)100% (Sep 6, 3:30 AM)30.07 "Hg (Sep 6, 3:30 AM)
Low57 °F (Sep 10, 5:00 AM)5% (Sep 14, 2:00 PM)29.80 "Hg (Sep 16, 2:30 PM)
Average76 °F62%29.94 "Hg
* Reported Sep 4 9:00 AM — Sep 19 9:00 AM, Port Hedland, Weather by CustomWeather, © 2014

Note: Actual official high and low records may vary slightly from our data, if they occured in-between our weather recording intervals... More about our weather records

Advertising

Port Hedland weather history for previous 24 hours

 ConditionsComfort  
Time TempWeatherWind HumidityBarometerVisibility
9:00 AM
Sep 19
88 °FSunny.6 mph21%30.01 "HgN/A
8:30 AM82 °FSunny.5 mph35%30.01 "HgN/A
8:00 AM77 °FSunny.5 mph44%30.01 "HgN/A
7:30 AM72 °FSunny.No wind73%30.01 "HgN/A
7:00 AM66 °FSunny.6 mph94%29.98 "HgN/A
6:30 AM61 °FSunny.8 mph100%29.98 "HgN/A
6:00 AM61 °FSunny.3 mph100%29.98 "HgN/A
5:30 AM63 °FSunny.7 mph100%29.95 "HgN/A
5:00 AM61 °FSunny.5 mph100%29.95 "HgN/A
4:30 AM61 °FClear.6 mph94%29.95 "HgN/A
4:00 AM63 °FClear.5 mph94%29.95 "HgN/A
3:00 AM63 °FClear.5 mph94%29.95 "HgN/A
2:30 AM64 °FClear.3 mph94%29.95 "HgN/A
2:00 AM64 °FClear.3 mph88%29.95 "HgN/A
1:30 AM66 °FClear.3 mph88%29.95 "HgN/A
1:00 AM66 °FClear.7 mph94%29.95 "HgN/A
12:30 AM66 °FClear.7 mph94%29.95 "HgN/A
12:00 AM66 °FClear.6 mph94%29.98 "HgN/A
11:30 PM
Sep 18
66 °FClear.7 mph94%29.98 "HgN/A
11:00 PM68 °FClear.7 mph94%29.98 "HgN/A
10:30 PM68 °FClear.8 mph83%29.98 "HgN/A
10:00 PM68 °FClear.8 mph83%29.98 "HgN/A
9:30 PM70 °FClear.8 mph78%29.98 "HgN/A
9:00 PM72 °FClear.8 mph78%29.98 "HgN/A
8:30 PM72 °FClear.8 mph78%29.98 "HgN/A
8:00 PM73 °FClear.8 mph74%29.98 "HgN/A
7:30 PM75 °FClear.9 mph69%29.95 "HgN/A
7:00 PM77 °FClear.9 mph61%29.95 "HgN/A
6:30 PM77 °FClear.9 mph61%29.95 "HgN/A
6:00 PM81 °FClear.10 mph54%29.92 "HgN/A
5:30 PM84 °FClear.14 mph43%29.92 "HgN/A
5:00 PM84 °FClear.15 mph45%29.92 "HgN/A
4:30 PM86 °FSunny.16 mph43%29.92 "HgN/A
4:00 PM90 °FSunny.16 mph33%29.89 "HgN/A
3:30 PM91 °FSunny.16 mph30%29.89 "HgN/A
3:00 PM91 °FSunny.16 mph30%29.89 "Hg10 mi
2:30 PM91 °FHot.16 mph30%29.92 "HgN/A
2:00 PM91 °FSunny.14 mph44%29.92 "Hg10 mi
1:30 PM88 °FSunny.18 mph52%29.92 "Hg10 mi
1:00 PM97 °FSunny.13 mph25%29.92 "Hg10 mi
12:30 PM99 °FSunny.13 mph21%29.95 "Hg10 mi
12:00 PM97 °FSunny.13 mph19%29.95 "Hg10 mi
11:30 AM97 °FSunny.12 mph25%29.98 "HgN/A
11:00 AM95 °FSunny.8 mph15%29.98 "Hg10 mi
10:30 AM91 °FSunny.8 mph38%29.98 "Hg10 mi
10:00 AM90 °FSunny.8 mph38%30.01 "Hg10 mi
Weather by CustomWeather, © 2014

See weather overviewHow to use our weather pages